Home   Weather   Swansea   Past weeks

Flag for United Kingdom Past Weather in Swansea, Wales, United Kingdom — Yesterday and Last 2 Weeks

Now
46 °F

Cool.


Feels Like: 38 °F
Forecast: N/A
Wind: 22 mph from West

Location: Mumbles

Current Time: Feb 20, 2017 at 8:26:26 pm

Latest Report: Feb 20, 2017 at 7:00 pm


Visibility: N/A

Pressure: 30.17 "Hg

Humidity: 100%

Dew Point: 46 °F

Location of SwanseaLocation

Past Weather in Swansea — Graph

°F

Swansea Temperature Yesterday

Maximum temperature yesterday: 48 °F (at 3:00 am)
Minimum temperature yesterday: 46 °F (at 8:00 am)
Average temperature yesterday: 47 °F

High & Low Weather Summary for the Past Weeks

 TemperatureHumidityPressure
High52 °F (Feb 20, 2:00 pm)100% (Feb 6, 8:00 pm)30.44 "Hg (Feb 6, 8:00 pm)
Low34 °F (Feb 11, 5:00 am)59% (Feb 10, 5:00 pm)29.80 "Hg (Feb 6, 11:00 pm)
Average43 °F88%30.21 "Hg
* Reported Feb 5 7:00 pm — Feb 20 7:00 pm, Swansea, Weather by CustomWeather, © 2017

Note: Actual official high and low records may vary slightly from our data, if they occured in-between our weather recording intervals... More about our weather records

Advertising

Swansea Weather History for the Previous 24 Hours

Scroll right to see more
 ConditionsComfort  
Time TempWeatherWind HumidityBarometerVisibility
7:00 pm
Mon, Feb 20
46 °FCool.22 mph100%30.17 "HgN/A
6:00 pm47 °FCool.20 mph100%30.16 "HgN/A
5:00 pm49 °FCool.17 mph100%30.16 "HgN/A
4:00 pm49 °FCool.20 mph100%30.14 "HgN/A
3:00 pm48 °FCool.21 mph99%30.15 "HgN/A
2:00 pm52 °FCool.17 mph100%30.16 "HgN/A
1:00 pm47 °FCool.15 mph100%30.17 "HgN/A
11:50 am47 °FCool.18 mph100%30.18 "HgN/A
11:00 am47 °FCool.17 mph100%30.19 "HgN/A
10:00 am50 °FCool.8 mph100%30.19 "HgN/A
9:00 am47 °FCool.13 mph100%30.20 "HgN/A
8:00 am48 °FCool.9 mph100%30.18 "HgN/A
7:00 am49 °FCool.7 mph100%30.17 "HgN/A
6:00 am49 °FCool.7 mph100%30.18 "HgN/A
5:00 am47 °FCool.9 mph100%30.18 "HgN/A
4:00 am47 °FCool.7 mph100%30.17 "HgN/A
3:00 am47 °FCool.7 mph100%30.18 "HgN/A
2:00 am47 °FCool.9 mph100%30.19 "HgN/A
1:00 am47 °FCool.13 mph100%30.20 "HgN/A
11:50 pm
Sun, Feb 19
47 °FCool.12 mph100%30.22 "HgN/A
11:00 pm48 °FCool.8 mph100%30.22 "HgN/A
10:00 pm46 °FCool.10 mph100%30.22 "HgN/A
9:00 pm46 °FCool.10 mph100%30.22 "HgN/A
8:00 pm46 °FCool.12 mph100%30.22 "HgN/A
Weather by CustomWeather, © 2017

See weather overviewHow to use our weather pages